Zurück zum Katalog

STARLINK-35440

AktivKommunikationVLEO
NORAD 66345·PAYLOAD·🇺🇸 United States

Gestartet Nov 6, 2025 von Cape Canaveral Space Force Station

Loading…

Nächste Überflüge (nächste 24 Stunden)

TLE

AktuellSource: CelesTrak SupGP

Epoche: Sep 14, 2026, 20:55 UTC

1 66345C 25253AC  26257.87201389  .00034653  00000+0  12552-2 0  2575
2 66345  42.9997 224.2069 0001084 256.1903 197.1834 15.27559363    10

Verfolge STARLINK-35440 in Echtzeit mit AllMySat

Download on the App Store